(°C)
(°C)
NNE
N
N
N
N
N
NNO
(km/h)
15-28
15-28
15-27
14-26
14-24
11-20
9-18
(mm)
0
0
0
0
0
0
0
(%)
0
0
0
0
0
0
0

Elevação do sol

/ 26.5°
sun-icon
UV 1
07:10
19:02
Minguante gibosa (264°)
21:28
15:58

METAR para 57.92°N 56.02°L (USPP)

Hora Condições Temperatura/
Ponto de condensação
Vento Visibilidade Tempo Nuvens Pressão Mudança Bruto
VFR 9°C / -3°C 50º variable 010º to 080º 12kt >10km - Scattered Clouds 4800ft 1027 No Significant change. Runway 03: Clear and dry, 51-100% contamination with <1mm, friction coefficient 0.60. USPP 280930Z 05006MPS 010V080 9999 SCT048 09/M03 Q1027 R03/090060 NOSIG RMK QFE759
VFR 9°C / -2°C 40º variable 020º to 080º 10kt >10km - Scattered Clouds 4800ft 1027 No Significant change. Runway 03: Clear and dry, 51-100% contamination with <1mm, friction coefficient 0.60. USPP 280900Z 04005MPS 020V080 9999 SCT048 09/M02 Q1027 R03/090060 NOSIG RMK QFE759
VFR 9°C / -2°C 60º variable 020º to 110º 12kt >10km - Scattered Clouds 4800ft 1027 No Significant change. Runway 03: Clear and dry, 51-100% contamination with <1mm, friction coefficient 0.60. USPP 280830Z 06006MPS 020V110 9999 SCT048 09/M02 Q1027 R03/090060 NOSIG RMK QFE760
VFR 9°C / -2°C 80º 12kt >10km - Scattered Clouds 4400ft 1027 No Significant change. Runway 03: Clear and dry, 51-100% contamination with <1mm, friction coefficient 0.60. USPP 280800Z 08006MPS 9999 SCT044 09/M02 Q1027 R03/090060 NOSIG RMK QFE760
VFR 8°C / -3°C 70º 14kt >10km - Broken Clouds 4400ft 1027 No Significant change. Runway 03: Clear and dry, 51-100% contamination with <1mm, friction coefficient 0.60. USPP 280730Z 07007MPS 9999 BKN044 08/M03 Q1027 R03/090060 NOSIG RMK QFE760
VFR 8°C / -1°C 60º 12kt >10km - Scattered Clouds 4400ft 1028 No Significant change. Runway 03: Clear and dry, 51-100% contamination with <1mm, friction coefficient 0.60. USPP 280700Z 06006MPS 9999 SCT044 08/M01 Q1028 R03/090060 NOSIG RMK QFE760
VFR 8°C / -2°C 50º 12kt >10km - Clouds and Visibility OK 1028 No Significant change. Runway 03: Clear and dry, 51-100% contamination with <1mm, friction coefficient 0.60. USPP 280630Z 05006MPS CAVOK 08/M02 Q1028 R03/090060 NOSIG RMK QFE760
VFR 8°C / 0°C 40º variable 010º to 080º 10kt >10km - Clouds and Visibility OK 1028 No Significant change. Runway 03: Clear and dry, 51-100% contamination with <1mm, friction coefficient 0.60. USPP 280600Z 04005MPS 010V080 CAVOK 08/M00 Q1028 R03/090060 NOSIG RMK QFE760
VFR 6°C / -1°C 50º variable 020º to 080º 8kt >10km - Clouds and Visibility OK 1028 No Significant change. Runway 21: Clear and dry, 51-100% contamination with <1mm, friction coefficient 0.60. USPP 280530Z 05004MPS 020V080 CAVOK 06/M01 Q1028 R21/090060 NOSIG RMK QFE760
VFR 6°C / -1°C 70º 8kt >10km - Clouds and Visibility OK 1027 No Significant change. Runway 21: Clear and dry, 51-100% contamination with <1mm, friction coefficient 0.60. USPP 280500Z 07004MPS CAVOK 06/M01 Q1027 R21/090060 NOSIG RMK QFE760
VFR 5°C / 0°C 50º variable 020º to 080º 6kt >10km - Clouds and Visibility OK 1027 No Significant change. Runway 21: Clear and dry, 51-100% contamination with <1mm, friction coefficient 0.60. USPP 280430Z 05003MPS 020V080 CAVOK 05/M00 Q1027 R21/090060 NOSIG RMK QFE760
VFR 4°C / 0°C 40º variable 360º to 080º 4kt >10km - Clouds and Visibility OK 1028 No Significant change. Runway 21: Clear and dry, 51-100% contamination with <1mm, friction coefficient 0.60. USPP 280400Z 04002MPS 360V080 CAVOK 04/M00 Q1028 R21/090060 NOSIG RMK QFE760
VFR 2°C / -1°C 60º 6kt >10km - Clouds and Visibility OK 1027 No Significant change. Runway 21: Clear and dry, 51-100% contamination with <1mm, friction coefficient 0.60. USPP 280330Z 06003MPS CAVOK 02/M01 Q1027 R21/090060 NOSIG RMK QFE760
VFR 1°C / -2°C 40º 6kt >10km - Clouds and Visibility OK 1027 No Significant change. Runway 21: Clear and dry, 51-100% contamination with <1mm, friction coefficient 0.60. USPP 280300Z 04003MPS CAVOK 01/M02 Q1027 R21/090060 NOSIG RMK QFE760
VFR 1°C / -2°C 40º 4kt >10km - Clouds and Visibility OK 1027 No Significant change. Runway 21: Clear and dry, 51-100% contamination with <1mm, friction coefficient 0.60. USPP 280230Z 04002MPS CAVOK 01/M02 Q1027 R21/090060 NOSIG RMK QFE759
VFR 1°C / -2°C 40º 4kt >10km - Clouds and Visibility OK 1027 No Significant change. Runway 03: Clear and dry, 51-100% contamination with <1mm, friction coefficient 0.60. USPP 280200Z 04002MPS CAVOK 01/M02 Q1027 R03/090060 NOSIG RMK QFE759
VFR 0°C / -3°C variable 0kt >10km - Clouds and Visibility OK 1027 No Significant change. Runway 03: Clear and dry, 51-100% contamination with <1mm, friction coefficient 0.60. USPP 280130Z 00000MPS CAVOK M00/M03 Q1027 R03/090060 NOSIG RMK QFE759
VFR 0°C / -2°C variable 0kt >10km - Clouds and Visibility OK 1027 No Significant change. Runway 03: Clear and dry, 51-100% contamination with <1mm, friction coefficient 0.60. USPP 280100Z 00000MPS CAVOK 00/M02 Q1027 R03/090060 NOSIG RMK QFE759
VFR 1°C / -2°C variable 2kt >10km - Clouds and Visibility OK 1026 No Significant change. Runway 03: Clear and dry, 51-100% contamination with <1mm, friction coefficient 0.60. USPP 280030Z VRB01MPS CAVOK 01/M02 Q1026 R03/090060 NOSIG RMK QFE759
VFR 1°C / -2°C 360º variable 340º to 090º 4kt >10km - Clouds and Visibility OK 1026 No Significant change. Runway 03: Clear and dry, 51-100% contamination with <1mm, friction coefficient 0.60. USPP 280000Z 36002MPS 340V090 CAVOK 01/M02 Q1026 R03/090060 NOSIG RMK QFE759
VFR 0°C / -3°C variable 2kt >10km - Clouds and Visibility OK 1026 No Significant change. Runway 03: Clear and dry, 51-100% contamination with <1mm, friction coefficient 0.60. USPP 272330Z VRB01MPS CAVOK 00/M03 Q1026 R03/090060 NOSIG RMK QFE759
VFR 0°C / -2°C variable 2kt >10km - Clouds and Visibility OK 1026 No Significant change. Runway 03: Clear and dry, 51-100% contamination with <1mm, friction coefficient 0.60. USPP 272300Z VRB01MPS CAVOK 00/M02 Q1026 R03/090060 NOSIG RMK QFE759
VFR 1°C / -2°C 10º 2kt >10km - Clouds and Visibility OK 1026 No Significant change. Runway 03: Clear and dry, 51-100% contamination with <1mm, friction coefficient 0.60. USPP 272230Z 01001MPS CAVOK 01/M02 Q1026 R03/090060 NOSIG RMK QFE759
VFR 1°C / -2°C 20º 4kt >10km - Clouds and Visibility OK 1026 No Significant change. Runway 03: Clear and dry, 51-100% contamination with <1mm, friction coefficient 0.60. USPP 272200Z 02002MPS CAVOK 01/M02 Q1026 R03/090060 NOSIG RMK QFE759

VFR

9°C / -3°C

[Mais]
Vento 50º variable 010º to 080º 12kt
Visibilidade >10km
Tempo -
Nuvens Scattered Clouds 4800ft
Pressão 1027
Mudança No Significant change. Runway 03: Clear and dry, 51-100% contamination with <1mm, friction coefficient 0.60.
Bruto USPP 280930Z 05006MPS 010V080 9999 SCT048 09/M03 Q1027 R03/090060 NOSIG RMK QFE759

VFR

9°C / -2°C

[Mais]
Vento 40º variable 020º to 080º 10kt
Visibilidade >10km
Tempo -
Nuvens Scattered Clouds 4800ft
Pressão 1027
Mudança No Significant change. Runway 03: Clear and dry, 51-100% contamination with <1mm, friction coefficient 0.60.
Bruto USPP 280900Z 04005MPS 020V080 9999 SCT048 09/M02 Q1027 R03/090060 NOSIG RMK QFE759

VFR

9°C / -2°C

[Mais]
Vento 60º variable 020º to 110º 12kt
Visibilidade >10km
Tempo -
Nuvens Scattered Clouds 4800ft
Pressão 1027
Mudança No Significant change. Runway 03: Clear and dry, 51-100% contamination with <1mm, friction coefficient 0.60.
Bruto USPP 280830Z 06006MPS 020V110 9999 SCT048 09/M02 Q1027 R03/090060 NOSIG RMK QFE760

VFR

9°C / -2°C

[Mais]
Vento 80º 12kt
Visibilidade >10km
Tempo -
Nuvens Scattered Clouds 4400ft
Pressão 1027
Mudança No Significant change. Runway 03: Clear and dry, 51-100% contamination with <1mm, friction coefficient 0.60.
Bruto USPP 280800Z 08006MPS 9999 SCT044 09/M02 Q1027 R03/090060 NOSIG RMK QFE760

VFR

8°C / -3°C

[Mais]
Vento 70º 14kt
Visibilidade >10km
Tempo -
Nuvens Broken Clouds 4400ft
Pressão 1027
Mudança No Significant change. Runway 03: Clear and dry, 51-100% contamination with <1mm, friction coefficient 0.60.
Bruto USPP 280730Z 07007MPS 9999 BKN044 08/M03 Q1027 R03/090060 NOSIG RMK QFE760

VFR

8°C / -1°C

[Mais]
Vento 60º 12kt
Visibilidade >10km
Tempo -
Nuvens Scattered Clouds 4400ft
Pressão 1028
Mudança No Significant change. Runway 03: Clear and dry, 51-100% contamination with <1mm, friction coefficient 0.60.
Bruto USPP 280700Z 06006MPS 9999 SCT044 08/M01 Q1028 R03/090060 NOSIG RMK QFE760

VFR

8°C / -2°C

[Mais]
Vento 50º 12kt
Visibilidade >10km
Tempo -
Nuvens Clouds and Visibility OK
Pressão 1028
Mudança No Significant change. Runway 03: Clear and dry, 51-100% contamination with <1mm, friction coefficient 0.60.
Bruto USPP 280630Z 05006MPS CAVOK 08/M02 Q1028 R03/090060 NOSIG RMK QFE760

VFR

8°C / 0°C

[Mais]
Vento 40º variable 010º to 080º 10kt
Visibilidade >10km
Tempo -
Nuvens Clouds and Visibility OK
Pressão 1028
Mudança No Significant change. Runway 03: Clear and dry, 51-100% contamination with <1mm, friction coefficient 0.60.
Bruto USPP 280600Z 04005MPS 010V080 CAVOK 08/M00 Q1028 R03/090060 NOSIG RMK QFE760

VFR

6°C / -1°C

[Mais]
Vento 50º variable 020º to 080º 8kt
Visibilidade >10km
Tempo -
Nuvens Clouds and Visibility OK
Pressão 1028
Mudança No Significant change. Runway 21: Clear and dry, 51-100% contamination with <1mm, friction coefficient 0.60.
Bruto USPP 280530Z 05004MPS 020V080 CAVOK 06/M01 Q1028 R21/090060 NOSIG RMK QFE760

VFR

6°C / -1°C

[Mais]
Vento 70º 8kt
Visibilidade >10km
Tempo -
Nuvens Clouds and Visibility OK
Pressão 1027
Mudança No Significant change. Runway 21: Clear and dry, 51-100% contamination with <1mm, friction coefficient 0.60.
Bruto USPP 280500Z 07004MPS CAVOK 06/M01 Q1027 R21/090060 NOSIG RMK QFE760

VFR

5°C / 0°C

[Mais]
Vento 50º variable 020º to 080º 6kt
Visibilidade >10km
Tempo -
Nuvens Clouds and Visibility OK
Pressão 1027
Mudança No Significant change. Runway 21: Clear and dry, 51-100% contamination with <1mm, friction coefficient 0.60.
Bruto USPP 280430Z 05003MPS 020V080 CAVOK 05/M00 Q1027 R21/090060 NOSIG RMK QFE760

VFR

4°C / 0°C

[Mais]
Vento 40º variable 360º to 080º 4kt
Visibilidade >10km
Tempo -
Nuvens Clouds and Visibility OK
Pressão 1028
Mudança No Significant change. Runway 21: Clear and dry, 51-100% contamination with <1mm, friction coefficient 0.60.
Bruto USPP 280400Z 04002MPS 360V080 CAVOK 04/M00 Q1028 R21/090060 NOSIG RMK QFE760

VFR

2°C / -1°C

[Mais]
Vento 60º 6kt
Visibilidade >10km
Tempo -
Nuvens Clouds and Visibility OK
Pressão 1027
Mudança No Significant change. Runway 21: Clear and dry, 51-100% contamination with <1mm, friction coefficient 0.60.
Bruto USPP 280330Z 06003MPS CAVOK 02/M01 Q1027 R21/090060 NOSIG RMK QFE760

VFR

1°C / -2°C

[Mais]
Vento 40º 6kt
Visibilidade >10km
Tempo -
Nuvens Clouds and Visibility OK
Pressão 1027
Mudança No Significant change. Runway 21: Clear and dry, 51-100% contamination with <1mm, friction coefficient 0.60.
Bruto USPP 280300Z 04003MPS CAVOK 01/M02 Q1027 R21/090060 NOSIG RMK QFE760

VFR

1°C / -2°C

[Mais]
Vento 40º 4kt
Visibilidade >10km
Tempo -
Nuvens Clouds and Visibility OK
Pressão 1027
Mudança No Significant change. Runway 21: Clear and dry, 51-100% contamination with <1mm, friction coefficient 0.60.
Bruto USPP 280230Z 04002MPS CAVOK 01/M02 Q1027 R21/090060 NOSIG RMK QFE759

VFR

1°C / -2°C

[Mais]
Vento 40º 4kt
Visibilidade >10km
Tempo -
Nuvens Clouds and Visibility OK
Pressão 1027
Mudança No Significant change. Runway 03: Clear and dry, 51-100% contamination with <1mm, friction coefficient 0.60.
Bruto USPP 280200Z 04002MPS CAVOK 01/M02 Q1027 R03/090060 NOSIG RMK QFE759

VFR

0°C / -3°C

[Mais]
Vento variable 0kt
Visibilidade >10km
Tempo -
Nuvens Clouds and Visibility OK
Pressão 1027
Mudança No Significant change. Runway 03: Clear and dry, 51-100% contamination with <1mm, friction coefficient 0.60.
Bruto USPP 280130Z 00000MPS CAVOK M00/M03 Q1027 R03/090060 NOSIG RMK QFE759

VFR

0°C / -2°C

[Mais]
Vento variable 0kt
Visibilidade >10km
Tempo -
Nuvens Clouds and Visibility OK
Pressão 1027
Mudança No Significant change. Runway 03: Clear and dry, 51-100% contamination with <1mm, friction coefficient 0.60.
Bruto USPP 280100Z 00000MPS CAVOK 00/M02 Q1027 R03/090060 NOSIG RMK QFE759

VFR

1°C / -2°C

[Mais]
Vento variable 2kt
Visibilidade >10km
Tempo -
Nuvens Clouds and Visibility OK
Pressão 1026
Mudança No Significant change. Runway 03: Clear and dry, 51-100% contamination with <1mm, friction coefficient 0.60.
Bruto USPP 280030Z VRB01MPS CAVOK 01/M02 Q1026 R03/090060 NOSIG RMK QFE759

VFR

1°C / -2°C

[Mais]
Vento 360º variable 340º to 090º 4kt
Visibilidade >10km
Tempo -
Nuvens Clouds and Visibility OK
Pressão 1026
Mudança No Significant change. Runway 03: Clear and dry, 51-100% contamination with <1mm, friction coefficient 0.60.
Bruto USPP 280000Z 36002MPS 340V090 CAVOK 01/M02 Q1026 R03/090060 NOSIG RMK QFE759

VFR

0°C / -3°C

[Mais]
Vento variable 2kt
Visibilidade >10km
Tempo -
Nuvens Clouds and Visibility OK
Pressão 1026
Mudança No Significant change. Runway 03: Clear and dry, 51-100% contamination with <1mm, friction coefficient 0.60.
Bruto USPP 272330Z VRB01MPS CAVOK 00/M03 Q1026 R03/090060 NOSIG RMK QFE759

VFR

0°C / -2°C

[Mais]
Vento variable 2kt
Visibilidade >10km
Tempo -
Nuvens Clouds and Visibility OK
Pressão 1026
Mudança No Significant change. Runway 03: Clear and dry, 51-100% contamination with <1mm, friction coefficient 0.60.
Bruto USPP 272300Z VRB01MPS CAVOK 00/M02 Q1026 R03/090060 NOSIG RMK QFE759

VFR

1°C / -2°C

[Mais]
Vento 10º 2kt
Visibilidade >10km
Tempo -
Nuvens Clouds and Visibility OK
Pressão 1026
Mudança No Significant change. Runway 03: Clear and dry, 51-100% contamination with <1mm, friction coefficient 0.60.
Bruto USPP 272230Z 01001MPS CAVOK 01/M02 Q1026 R03/090060 NOSIG RMK QFE759

VFR

1°C / -2°C

[Mais]
Vento 20º 4kt
Visibilidade >10km
Tempo -
Nuvens Clouds and Visibility OK
Pressão 1026
Mudança No Significant change. Runway 03: Clear and dry, 51-100% contamination with <1mm, friction coefficient 0.60.
Bruto USPP 272200Z 02002MPS CAVOK 01/M02 Q1026 R03/090060 NOSIG RMK QFE759

TAF para 57.92°N 56.02°L (USPP)

From till


From till Wind 50º 6kt. Gust 27kt. Visibility 10km or more. Broken Clouds 3000ft.
From till Wind 10º 6kt. Gust 16kt. Visibility 6000m. Scattered Clouds 1600ft.

Bruto: TAF USPP 280757Z 2809/2909 05003G14MPS 9999 BKN030 FM281500 01003G08MPS 6000 SCT016

Imagens atuais de satélite e precipitação para 57.92°N 56.02°L

O marcador de lugar é colocado em 57.92°N 56.02°L. [Mais]

A imagem de satélite em tempo real combina luz visível durante o dia com radiação infravermelha durante a noite. À noite, a imagem não é escura, pois a radiação infravermelha pode detectar diferenças de temperatura. Infelizmente, nuvens baixas e neblina são difíceis de distinguir das temperaturas do solo e, portanto, podem ser quase invisíveis durante a noite. As imagens de satélite Meteosat para a Europa são atualizadas em tempo real a cada 5 minutos. GOES-16/GOES-17 ( América do Norte e do Sul) e Himawari (Ásia) são atualizadas a cada 10 minutos.

Copyright 2021 EUMETSAT / meteoblue. / Copyright 2021 meteoblue

Radar e precipitação nowcast para 57.92°N 56.02°L

Chuvisco
Leve
Moderado
Forte
Muito forte
Granizo

O marcador do lugar é colocado em 57.92°N 56.02°L. Esta animação mostra o radar de precipitação para a última hora, assim como a 1h previsão. A queda de neve pode ser invisível para o radar. A intensidade da precipitação é codificada por cores, variando do azul claro ao laranja.